Home > Weather > Guelph > Past weeks

Flag for Canada Weather for the Past 2 Weeks in Guelph, Ontario, Canada

Now
27 °F

Light snow. Overcast.


Feels Like: 17 °F
Forecast: 13 / 29 °F
Wind: 9 mph from Southwest

Location: Waterloo Well

Current Time: Feb 9, 2016 at 8:12:01 PM

Latest Report: Feb 9, 2016 at 7:00 PM


Visibility: 6 mi

Pressure: 29.51 "Hg

Humidity: 93%

Dew point: 25 °F

Location of GuelphLocation

Historic Weather in Guelph — Graph

°F

Guelph Temperature Yesterday

Maximum temperature yesterday: 41 °F (at 12:00 PM)
Minimum temperature yesterday: 32 °F (at 7:00 PM)
Average temperature yesterday: 36 °F

High & Low Weather Summary for the Past Weeks

 TemperatureHumidityPressure
High57 °F (Feb 3, 1:52 PM)100% (Jan 31, 2:00 AM)30.34 "Hg (Jan 31, 2:00 AM)
Low14 °F (Jan 29, 9:04 AM)44% (Feb 3, 3:00 PM)29.46 "Hg (Jan 31, 11:00 PM)
Average32 °F83%29.86 "Hg
* Reported Jan 25 6:00 PM — Feb 9 6:00 PM, Guelph, Weather by CustomWeather, © 2016

Note: Actual official high and low records may vary slightly from our data, if they occured in-between our weather recording intervals... More about our weather records

Advertising

Guelph Weather History for the Previous 24 Hours

 ConditionsComfort  
Time TempWeatherWind HumidityBarometerVisibility
6:00 PM
Tue, Feb 9
28 °FLight snow. Overcast.10 mph86%29.50 "Hg9 mi
5:00 PM28 °FOvercast.13 mph86%29.49 "Hg9 mi
4:00 PM30 °FMostly cloudy.14 mph86%29.49 "Hg9 mi
3:00 PM30 °FOvercast.12 mph80%29.47 "Hg9 mi
2:00 PM32 °FMostly cloudy.13 mph87%29.46 "Hg9 mi
1:00 PM32 °FMostly cloudy.9 mph87%29.48 "Hg9 mi
12:00 PM34 °FCloudy.9 mph87%29.49 "Hg9 mi
11:00 AM32 °FIce fog.8 mph93%29.50 "Hg6 mi
10:02 AM32 °FIce fog.8 mph93%29.51 "Hg6 mi
10:00 AM32 °FLight snow. Mostly cloudy.8 mph93%29.51 "Hg6 mi
9:00 AM28 °FLight snow. Low clouds.8 mph100%29.50 "Hg4 mi
8:00 AM30 °FLight snow. Low clouds.7 mph93%29.50 "Hg4 mi
7:00 AM28 °FIcy mix. Low clouds.7 mph100%29.50 "Hg7 mi
6:00 AM28 °FLight snow. Low clouds.9 mph100%29.49 "Hg6 mi
5:00 AM30 °FLight snow. Low clouds.7 mph93%29.49 "Hg3 mi
4:00 AM30 °FLight snow. Low clouds.9 mph93%29.49 "Hg7 mi
3:00 AM32 °FLight snow. Low clouds.7 mph100%29.49 "Hg2 mi
2:00 AM32 °FLight snow. Low clouds.8 mph100%29.49 "Hg1 mi
1:00 AM32 °FLight snow. Low clouds.12 mph93%29.51 "Hg1 mi
12:00 AM32 °FLight snow. Low clouds.13 mph93%29.52 "Hg3 mi
11:55 PM
Mon, Feb 8
32 °FLight snow. Low clouds.15 mph93%29.52 "Hg5 mi
11:00 PM32 °FLight snow. Low clouds.16 mph93%29.52 "Hg4 mi
10:00 PM32 °FLight snow. Low clouds.17 mph93%29.55 "Hg3 mi
9:00 PM32 °FLight snow. Low clouds.17 mph93%29.56 "Hg2 mi
8:55 PM32 °FLight snow. Low clouds.16 mph93%29.56 "Hg2 mi
8:01 PM32 °FLight rain. Ice fog.16 mph93%29.57 "Hg5 mi
Weather by CustomWeather, © 2016

See weather overviewHow to use our weather pages